[[{"header":{"parameterUnit":"m.s-1","parameterCategory":1,"la1":30.2991,"la2":30.254,"lo1":-89.0895,"lo2":-89.0444,"dy":0.0017,"dx":0.0017,"nx":28,"ny":28,"refTime":"2024-07-25T03:00:00:Z","depth":0,"parameterNumber":2,"parameterNumberName":"U-component_of_WINDS"},"data":[0,0,0,0,0,0,0,0,0,0,0,0,0,0,0,0,0,0,0,0,0,0,0,0,0,0,0,0,0,0,0,0,0,0,0,0,0,0,0,0,0,0,0,0,0,0,0,0,0,0,0,0,0,0,0,0,0,0,-3.0742,-3.0742,0,-3.0751,-3.0751,-3.0751,-3.0657,-3.0654,-3.0652,-3.0649,-3.0659,-3.0661,-3.0664,0,0,0,0,0,0,0,0,0,0,0,0,0,-3.0643,-3.0645,-3.0742,-3.0742,-3.0742,-3.0751,-3.0751,-3.0751,-3.0657,-3.0654,-3.0651,-3.0648,-3.0658,-3.0661,-3.0664,0,0,0,0,0,0,0,0,0,0,0,0,0,-3.0673,-3.0646,-3.0742,-3.0696,-3.0692,-3.0751,-3.0751,-3.0751,-3.0658,-3.0654,-3.065,-3.0647,-3.0657,-3.0661,-3.0665,-3.0768,0,0,-3.0677,-3.0679,0,0,0,0,0,0,0,0,-3.0671,-3.0676,-3.0703,-3.0699,-3.0695,-3.0699,-3.072,-3.0757,-3.0659,-3.0671,-3.0649,-3.0645,-3.0675,-3.0678,-3.0688,-3.0768,-3.0769,-3.0677,-3.068,-3.0682,-3.0683,0,0,0,0,0,0,0,-3.0669,-3.0675,-3.0745,-3.0703,-3.0699,-3.0676,-3.0675,-3.0727,-3.0695,-3.067,-3.0663,-3.0665,-3.0672,-3.0684,-3.0687,-3.0769,-3.0677,-3.0681,-3.0683,-3.0685,-3.0935,-3.0939,0,0,0,0,0,0,-3.0673,-3.0674,-3.0745,-3.0746,-3.0673,-3.0681,-3.068,-3.0702,-3.0694,-3.0689,-3.0669,-3.0661,-3.0679,-3.0683,-3.0687,-3.0807,-3.0682,-3.0685,-3.0688,-3.0931,-3.0936,-3.094,0,0,0,0,0,0,-3.0671,-3.068,-3.0745,-3.0708,-3.0715,-3.0686,-3.0711,-3.0704,-3.0715,-3.0693,-3.0687,-3.0686,-3.0676,-3.0682,-3.0749,-3.0806,-3.0687,-3.0691,-3.0926,-3.0932,-3.0938,-3.1047,0,0,0,0,0,0,-3.0669,-3.068,-3.0719,-3.071,-3.0717,-3.0805,-3.0715,-3.0707,-3.0723,-3.0713,-3.0708,-3.0704,-3.0674,-3.0743,-3.0753,-3.0809,-3.0694,-3.092,-3.0928,-3.0936,-3.1038,-3.1056,-3.1072,0,0,0,0,0,-3.0666,-3.0749,-3.0721,-3.073,-3.0764,-3.0809,-3.0813,-3.0777,-3.0728,-3.0766,-3.0752,-3.0704,-3.0799,-3.0751,-3.0761,-3.0819,-3.0916,-3.0926,-3.0935,-3.103,-3.1052,-3.1071,0,0,0,0,0,0,-3.0764,-3.0746,-3.0716,-3.0798,-3.0806,-3.0793,-3.084,-3.0801,-3.0823,-3.0812,-3.0767,-3.0767,-3.0841,-3.0837,-3.0784,-3.0919,-3.0849,-3.0861,-3.0918,-3.0939,-3.0955,-3.0953,-3.0697,0,0,0,0,0,-3.0795,-3.0833,-3.0816,-3.089,-3.0896,-3.0868,-3.0886,-3.0858,-3.0864,-3.0866,-3.0857,-3.0865,-3.0897,-3.0918,-3.0946,-3.1039,-3.1036,-3.1084,-3.1101,-3.1115,-3.1124,-3.1173,-3.1194,-3.0971,-3.0971,-3.0971,0,0,-3.086,-3.0855,-3.0882,-3.091,-3.0912,-3.0953,-3.0871,-3.0917,-3.0946,-3.0873,-3.0935,-3.093,-3.0935,-3.1016,-3.1051,-3.1015,-3.1186,-3.1127,-3.1138,-3.114,-3.1185,-3.1206,-3.1225,-3.0978,-3.0977,-3.0976,0,0,-3.0997,-3.0999,-3.106,-3.1065,-3.1071,-3.1052,-3.1068,-3.1061,-3.1055,-3.1117,-3.1063,-3.1098,-3.1154,-3.116,-3.117,-3.1315,-3.1271,-3.1326,-3.1412,-3.146,-3.1478,-3.1493,-3.1543,-3.1562,-3.1336,-3.1337,-3.1337,0,-3.1076,-3.1134,-3.1097,-3.1146,-3.1161,-3.1099,-3.1161,-3.1168,-3.1182,-3.1194,-3.1154,-3.1223,-3.1223,-3.1303,-3.1339,-3.135,-3.1366,-3.1324,-3.1478,-3.1493,-3.1507,-3.1554,-3.1573,-3.1343,-3.1342,-3.1342,-3.1341,0,-3.1231,-3.1273,-3.1322,-3.1338,-3.1359,-3.1415,-3.1386,-3.1411,-3.1383,-3.1369,-3.1433,-3.1432,-3.1458,-3.1476,-3.1448,-3.1553,-3.1531,-3.1486,-3.1414,-3.1535,-3.1578,-3.1596,-3.1352,-3.135,-3.1348,-3.1346,0,0,-3.1426,-3.1423,-3.1442,-3.1448,-3.1452,-3.1483,-3.1538,-3.1564,-3.1586,-3.16,-3.1644,-3.1694,-3.1653,-3.1665,-3.1638,-3.1681,-3.1794,-3.163,-3.163,-3.1659,-3.1909,-3.194,-3.1962,-3.1767,-3.177,-3.1773,-3.1908,0,-3.1558,-3.1649,-3.1618,-3.1711,-3.1749,-3.1693,-3.174,-3.1748,-3.1737,-3.1768,-3.1757,-3.1792,-3.1736,-3.1743,-3.1784,-3.1772,-3.1843,-3.1762,-3.1806,-3.1808,-3.1803,-3.1985,-3.2018,-3.2144,-3.1925,-3.1928,-3.193,0,-3.1723,-3.1744,-3.184,-3.1839,-3.1854,-3.1896,-3.1919,-3.195,-3.1958,-3.1948,-3.1964,-3.1928,-3.1982,-3.1914,-3.1987,-3.1932,-3.1949,-3.1947,-3.1951,-3.195,-3.1873,-3.1987,-3.2184,-3.2202,-3.1956,-3.1954,-3.1952,0,-3.1852,-3.1905,-3.197,-3.1978,-3.1978,-3.201,-3.2011,-3.2016,-3.2035,-3.2055,-3.2067,-3.2094,-3.2108,-3.213,-3.2103,-3.2056,-3.218,-3.211,-3.2172,-3.2173,-3.2197,-3.2195,-3.2397,-3.2214,-3.2214,-3.2213,-3.2213,0,-3.2001,-3.2061,-3.2028,-3.2067,-3.2134,-3.21,-3.2168,-3.2163,-3.2169,-3.2206,-3.2161,-3.2198,-3.2162,-3.2196,-3.2176,-3.2239,-3.2247,-3.2239,-3.2232,-3.2241,-3.2242,-3.2248,-3.2238,-3.2218,-3.2217,-3.2216,-3.2216,0,-3.2154,-3.2135,-3.2201,-3.2197,-3.2198,-3.2247,-3.2244,-3.2281,-3.2269,-3.2317,-3.2327,-3.2308,-3.2346,-3.2323,-3.2361,-3.2348,-3.2429,-3.2412,-3.2426,-3.242,-3.2483,-3.2476,-3.2693,-3.2719,-3.2523,-3.2525,-3.2526,0,-3.2248,-3.2294,-3.2296,-3.2318,-3.2323,-3.236,-3.2379,-3.2349,-3.2371,-3.2386,-3.2421,-3.2455,-3.2479,-3.2543,-3.2532,-3.2562,-3.2543,-3.2618,-3.2547,-3.2554,-3.2541,-3.2537,-3.2541,-3.263,-3.2632,-3.2634,-3.2636,0,-3.2416,-3.2405,-3.2434,-3.2462,-3.2486,-3.2506,-3.2521,-3.2543,-3.2513,-3.254,-3.2578,-3.2598,-3.2638,-3.2672,-3.2698,-3.27,-3.2663,-3.2659,-3.2674,-3.2681,-3.2686,-3.2682,-3.2461,-3.2653,-3.2651,-3.265,-3.2649,-3.2648,-3.254,-3.2578,-3.2586,-3.2621,-3.2631,-3.2647,-3.2681,-3.2675,-3.2707,-3.2736,-3.2718,-3.2763,-3.2773,-3.2803,-3.2811,-3.2846,-3.2816,-3.2839,-3.2844,-3.2849,-3.2856,-3.2685,-3.2851,-3.285,-3.285,-3.285,-3.2849,0,-3.2703,-3.2707,-3.274,-3.2764,-3.2792,-3.2758,-3.2774,-3.2799,-3.284,-3.2852,-3.2879,-3.2924,-3.2958,-3.2952,-3.2983,-3.3012,-3.2996,-3.3021,-3.3016,-3.3017,-3.2883,-3.2865,-3.3033,-3.3033,-3.3033,-3.3033,-3.3033,-3.3033,-3.2791,-3.2853,-3.2844,-3.2911,-3.2914,-3.2958,-3.2971,-3.2986,-3.2996,-3.3048,-3.3076,-3.3073,-3.3079,-3.311,-3.314,-3.3137,-3.315,-3.318,-3.3171,-3.3045,-3.3027,-3.3009,-3.2992,-3.3184,-3.3184,-3.3302,-3.3303,-3.3304]},{"header":{"parameterUnit":"m.s-1","parameterCategory":1,"la1":30.2991,"la2":30.254,"lo1":-89.0895,"lo2":-89.0444,"dy":0.0017,"dx":0.0017,"nx":28,"ny":28,"refTime":"2024-07-25T03:00:00:Z","depth":0,"parameterNumber":3,"parameterNumberName":"V-component_of_WINDS"},"data":[0,0,0,0,0,0,0,0,0,0,0,0,0,0,0,0,0,0,0,0,0,0,0,0,0,0,0,0,0,0,0,0,0,0,0,0,0,0,0,0,0,0,0,0,0,0,0,0,0,0,0,0,0,0,0,0,0,0,0.0038,0.0038,0,0.0012,0.0012,0.0012,-0.002,-0.002,-0.002,-0.0021,-0.0049,-0.0049,-0.0049,0,0,0,0,0,0,0,0,0,0,0,0,0,0.0061,0.0061,0.0038,0.0038,0.0038,0.0012,0.0012,0.0012,-0.0019,-0.002,-0.0021,-0.0021,-0.0048,-0.0049,-0.0049,0,0,0,0,0,0,0,0,0,0,0,0,0,0.0045,0.006,0.0038,0.0019,0.0017,0.0013,0.0012,0.0012,-0.0019,-0.002,-0.0021,-0.0021,-0.0048,-0.0049,-0.0049,-0.0037,0,0,-0.005,-0.0051,0,0,0,0,0,0,0,0,0.0046,0.0044,0.0022,0.002,0.0018,-0.0001,0.001,-0.0005,-0.0019,-0.0006,-0.0021,-0.0022,-0.0032,-0.0034,-0.0037,-0.0038,-0.004,-0.005,-0.0051,-0.0051,-0.0051,0,0,0,0,0,0,0,0.0047,0.0045,0.0028,0.0022,0.0019,0.0012,0.0009,0.0007,-0.0015,-0.0007,-0.0009,-0.0012,-0.0033,-0.0037,-0.0038,-0.004,-0.005,-0.0051,-0.0051,-0.0051,-0.0031,-0.003,0,0,0,0,0,0,0.0051,0.0046,0.0029,0.0027,0.003,0.0012,0.0008,0.0006,-0.0015,-0.0018,-0.0011,-0.0013,-0.0036,-0.0038,-0.0039,-0.0026,-0.0051,-0.0051,-0.0052,-0.0032,-0.0031,-0.003,0,0,0,0,0,0,0.0051,0.005,0.003,0.0036,0.0033,0.0012,0.001,0.0006,0.0002,-0.0018,-0.0022,-0.001,-0.0036,-0.0039,-0.0037,-0.0027,-0.0051,-0.0052,-0.0033,-0.0032,-0.003,0.0001,0,0,0,0,0,0,0.0052,0.005,0.0054,0.0036,0.0033,0.0032,0.001,0.0006,0.0002,-0.0001,-0.0018,-0.0022,-0.0037,-0.0036,-0.0037,-0.0028,-0.0052,-0.0034,-0.0032,-0.0031,-0.0001,0.0003,0.0007,0,0,0,0,0,0.0053,0.0063,0.0054,0.0053,0.0037,0.0033,0.0031,0.0014,0.0003,0.0007,-0.0006,-0.0021,-0.0028,-0.0036,-0.0037,-0.0028,-0.0034,-0.0033,-0.0031,-0.0003,0.0002,0.0007,0,0,0,0,0,0,0.0082,0.0061,0.005,0.0055,0.0046,0.0028,0.0032,0.0019,0.0013,0.001,-0.0011,-0.0015,-0.001,-0.0019,-0.0028,-0.0017,-0.0033,-0.0032,-0.0011,-0.0007,-0.0003,-0.0001,-0.0053,0,0,0,0,0,0.0089,0.0088,0.0069,0.0075,0.0071,0.0053,0.005,0.0038,0.0027,0.0023,0.0011,0.0001,-0.0003,-0.0005,-0.001,-0.0002,-0.0006,0.0004,0.0008,0.0011,0.0012,0.0017,0.0021,-0.0024,-0.0024,-0.0024,0,0,0.0103,0.0092,0.0092,0.0081,0.0072,0.0071,0.005,0.0049,0.0048,0.0023,0.0024,0.0015,0.0003,0.0008,0.001,0.0001,0.0024,0.0013,0.0016,0.0015,0.0019,0.0024,0.0028,-0.0023,-0.0023,-0.0023,0,0,0.0129,0.012,0.0124,0.0117,0.0105,0.0093,0.0094,0.0078,0.0071,0.0072,0.0054,0.0052,0.0046,0.0038,0.0034,0.0059,0.0045,0.0058,0.0078,0.0083,0.0086,0.0089,0.0099,0.0103,0.006,0.006,0.006,0,0.0148,0.0146,0.0128,0.013,0.0126,0.0104,0.0109,0.0102,0.0089,0.0087,0.0077,0.007,0.006,0.0064,0.007,0.0067,0.0068,0.0059,0.0087,0.009,0.0093,0.0102,0.0106,0.0061,0.0061,0.0061,0.0061,0,0.0171,0.017,0.0175,0.0164,0.016,0.0163,0.0147,0.0145,0.0134,0.0123,0.0125,0.0113,0.0106,0.0106,0.0094,0.0109,0.0104,0.0091,0.0074,0.0099,0.0107,0.0111,0.0064,0.0063,0.0063,0.0062,0,0,0.0212,0.0193,0.0195,0.019,0.0176,0.0175,0.0178,0.0172,0.0172,0.0164,0.0166,0.0162,0.015,0.0145,0.0133,0.0137,0.0159,0.0124,0.0123,0.0131,0.0176,0.0185,0.0189,0.015,0.0151,0.0151,0.0177,0,0.0236,0.0239,0.0224,0.0231,0.0231,0.0211,0.0214,0.0206,0.0196,0.0195,0.0184,0.0182,0.0166,0.0163,0.0167,0.0156,0.0168,0.0154,0.0152,0.0152,0.0155,0.0194,0.0203,0.0228,0.018,0.018,0.0181,0,0.0263,0.0258,0.0265,0.0252,0.0252,0.0254,0.0248,0.0246,0.0238,0.023,0.0226,0.0212,0.0214,0.0198,0.0202,0.0192,0.0191,0.0186,0.0186,0.0185,0.0168,0.0194,0.0235,0.0239,0.0185,0.0185,0.0185,0,0.0293,0.0288,0.0292,0.0289,0.0274,0.0276,0.027,0.026,0.0258,0.0253,0.0252,0.0247,0.0244,0.024,0.0226,0.0216,0.0231,0.0214,0.0226,0.0226,0.0229,0.0229,0.0272,0.0228,0.0228,0.0228,0.0228,0,0.0321,0.0326,0.0306,0.0308,0.0315,0.0298,0.0304,0.0296,0.0288,0.0289,0.0272,0.0273,0.0254,0.0253,0.0242,0.0247,0.0246,0.024,0.0237,0.0242,0.0243,0.024,0.0238,0.0229,0.0229,0.0229,0.0229,0,0.0355,0.0342,0.0345,0.0331,0.0328,0.0333,0.0322,0.0324,0.0314,0.0316,0.0315,0.0299,0.0298,0.0284,0.0279,0.0271,0.0281,0.0274,0.0284,0.0282,0.0294,0.0294,0.0337,0.0342,0.0296,0.0296,0.0296,0,0.0373,0.0377,0.0365,0.0364,0.0359,0.0359,0.0357,0.0341,0.034,0.0331,0.0335,0.0332,0.0329,0.0328,0.0316,0.0313,0.0306,0.0322,0.0305,0.0311,0.0307,0.0307,0.0308,0.0325,0.0326,0.0326,0.0326,0,0.0408,0.0401,0.0399,0.0395,0.0394,0.039,0.0385,0.0386,0.0368,0.0368,0.0367,0.0365,0.0361,0.0359,0.0354,0.0347,0.0334,0.0332,0.0334,0.0339,0.0345,0.0342,0.0293,0.0331,0.033,0.033,0.033,0.033,0.0435,0.0438,0.043,0.0429,0.0423,0.042,0.0421,0.0413,0.0411,0.0407,0.0398,0.0399,0.0391,0.0383,0.0378,0.0379,0.0371,0.0374,0.0375,0.0376,0.0379,0.0345,0.0378,0.0377,0.0377,0.0377,0.0377,0,0.0468,0.0463,0.0462,0.0456,0.0455,0.0444,0.0438,0.0439,0.0439,0.0434,0.0432,0.0431,0.0429,0.0419,0.0416,0.0418,0.0412,0.0418,0.0418,0.0417,0.0386,0.0384,0.0423,0.0423,0.0423,0.0423,0.0423,0.0423,0.0486,0.0491,0.0484,0.0487,0.0481,0.0482,0.048,0.0477,0.0472,0.0472,0.0471,0.0464,0.0457,0.0454,0.0452,0.0449,0.0449,0.0457,0.0452,0.0423,0.0419,0.0414,0.0413,0.0457,0.0457,0.0482,0.0483,0.0483]}]]